[[{"header":{"parameterUnit":"m.s-1","parameterCategory":1,"la1":30.2991,"la2":30.254,"lo1":-89.0895,"lo2":-89.0444,"dy":0.0017,"dx":0.0017,"nx":28,"ny":28,"refTime":"2024-05-26T21:00:00:Z","depth":0,"parameterNumber":2,"parameterNumberName":"U-component_of_WINDS"},"data":[0,0,0,0,0,0,0,0,0,0,0,0,0,0,0,0,0,0,0,0,0,0,0,0,0,0,0,0,0,0,0,0,0,0,0,0,0,0,0,0,0,0,0,0,0,0,0,0,0,0,0,0,0,0,0,0,0,0,3.2609,3.2609,0,3.2659,3.2659,3.266,3.2616,3.2615,3.2613,3.2611,3.2661,3.2664,3.2667,0,0,0,0,0,0,0,0,0,0,0,0,0,3.2472,3.2475,3.2609,3.2609,3.261,3.2659,3.2659,3.266,3.2617,3.2614,3.2612,3.261,3.266,3.2664,3.2668,0,0,0,0,0,0,0,0,0,0,0,0,0,3.2528,3.2476,3.2608,3.2594,3.2593,3.2659,3.2659,3.266,3.2617,3.2614,3.2612,3.2609,3.2659,3.2664,3.2668,3.275,0,0,3.2682,3.2684,0,0,0,0,0,0,0,0,3.2525,3.2533,3.2596,3.2595,3.2594,3.2629,3.263,3.269,3.2618,3.2608,3.2611,3.2608,3.2653,3.2658,3.2673,3.2752,3.2755,3.2682,3.2685,3.2687,3.2688,0,0,0,0,0,0,0,3.2521,3.253,3.2628,3.2596,3.2596,3.2584,3.2589,3.2641,3.2645,3.2609,3.2606,3.2612,3.2652,3.2669,3.2674,3.2755,3.2682,3.2686,3.2689,3.2691,3.2901,3.2904,0,0,0,0,0,0,3.2519,3.2527,3.2627,3.263,3.2552,3.2589,3.2594,3.262,3.2644,3.2645,3.2614,3.261,3.2662,3.2668,3.2675,3.277,3.2687,3.2691,3.2694,3.2898,3.2901,3.2905,0,0,0,0,0,0,3.2516,3.2528,3.2625,3.2578,3.2589,3.2594,3.2624,3.2623,3.2639,3.2649,3.2649,3.2631,3.266,3.2669,3.2731,3.2771,3.2693,3.2697,3.2895,3.2899,3.2903,3.2962,0,0,0,0,0,0,3.2512,3.2527,3.2559,3.2579,3.2592,3.2681,3.2626,3.2626,3.2647,3.2642,3.2664,3.2665,3.2659,3.2724,3.2736,3.2776,3.2701,3.2891,3.2897,3.2902,3.2956,3.2967,3.2977,0,0,0,0,0,3.2508,3.2574,3.2561,3.2573,3.2632,3.2683,3.269,3.2682,3.2651,3.2682,3.2688,3.2665,3.2766,3.2731,3.2743,3.2786,3.2888,3.2895,3.2901,3.2951,3.2965,3.2977,0,0,0,0,0,0,3.256,3.2577,3.2562,3.2638,3.2659,3.2676,3.2715,3.2698,3.2728,3.2722,3.271,3.2715,3.278,3.2789,3.2751,3.2864,3.2822,3.2831,3.2856,3.2869,3.2879,3.2874,3.2705,0,0,0,0,0,3.258,3.2621,3.2633,3.2698,3.271,3.2711,3.2733,3.2724,3.2746,3.2755,3.2765,3.2786,3.2822,3.2846,3.2881,3.2958,3.296,3.2993,3.3003,3.3012,3.3019,3.3057,3.3071,3.2926,3.2926,3.2925,0,0,3.2622,3.2636,3.2663,3.2709,3.2725,3.2765,3.2719,3.2765,3.2794,3.2762,3.282,3.2828,3.2851,3.292,3.2951,3.293,3.306,3.302,3.3027,3.3029,3.3065,3.3079,3.3091,3.293,3.2929,3.2929,0,0,3.2719,3.2736,3.279,3.2806,3.283,3.283,3.2843,3.2862,3.2866,3.2925,3.29,3.2935,3.2998,3.3015,3.3031,3.3132,3.3111,3.3144,3.3198,3.3235,3.3247,3.3257,3.329,3.3302,3.3152,3.3152,3.3152,0,3.2768,3.283,3.282,3.2867,3.2887,3.2859,3.2913,3.2929,3.2963,3.2977,3.2953,3.303,3.3044,3.3114,3.3139,3.3155,3.3167,3.3141,3.3246,3.3256,3.3265,3.3297,3.3309,3.3156,3.3155,3.3155,3.3154,0,3.2887,3.293,3.2971,3.3004,3.3028,3.3079,3.3075,3.3101,3.3091,3.3092,3.3151,3.3166,3.3201,3.3218,3.3209,3.3287,3.3273,3.3248,3.3204,3.3283,3.3312,3.3324,3.3161,3.3159,3.3158,3.3157,0,0,3.3019,3.3044,3.3059,3.3072,3.3096,3.3128,3.3176,3.321,3.3231,3.3256,3.3294,3.3348,3.3324,3.3343,3.3335,3.3368,3.3443,3.3338,3.3339,3.3355,3.3527,3.3543,3.3558,3.343,3.3432,3.3434,3.3524,0,3.3114,3.3198,3.319,3.3268,3.3306,3.3279,3.3321,3.3339,3.3342,3.3373,3.3376,3.3413,3.3381,3.3391,3.3423,3.3427,3.3477,3.3421,3.3463,3.3465,3.3456,3.3573,3.3592,3.3676,3.3536,3.3538,3.3539,0,3.3237,3.3264,3.3347,3.3362,3.3377,3.3415,3.3444,3.3476,3.3495,3.3494,3.3515,3.35,3.3546,3.3503,3.3566,3.3528,3.3545,3.3549,3.3552,3.3554,3.3505,3.3576,3.3703,3.3714,3.3557,3.3556,3.3555,0,3.332,3.3378,3.3434,3.3446,3.3467,3.3493,3.3503,3.3519,3.354,3.3565,3.3578,3.3609,3.3625,3.3649,3.3642,3.3612,3.3705,3.3662,3.3704,3.3704,3.3723,3.3721,3.3852,3.3738,3.3738,3.3738,3.3738,0,3.3426,3.3477,3.3471,3.3505,3.356,3.355,3.3605,3.3611,3.3626,3.366,3.3639,3.3671,3.3662,3.3693,3.3688,3.3739,3.3747,3.3746,3.3744,3.3747,3.3746,3.3756,3.3749,3.3741,3.3741,3.374,3.3739,0,3.3528,3.3527,3.3585,3.3599,3.3604,3.3643,3.3655,3.3686,3.3687,3.3729,3.3739,3.374,3.3775,3.3771,3.3811,3.3808,3.387,3.3862,3.3863,3.386,3.3901,3.3896,3.404,3.4057,3.3935,3.3937,3.3938,0,3.3595,3.3633,3.365,3.3671,3.3682,3.3717,3.3737,3.3728,3.3749,3.3773,3.3801,3.3834,3.386,3.3917,3.3921,3.3951,3.3942,3.399,3.3946,3.3946,3.3939,3.3935,3.3938,3.3998,3.3999,3.4,3.4001,0,3.3712,3.3709,3.3738,3.3768,3.3792,3.3814,3.3835,3.3853,3.3846,3.3871,3.3906,3.3926,3.3966,3.3998,3.4026,3.4035,3.4016,3.4016,3.4026,3.4028,3.4026,3.4024,3.3884,3.4012,3.4011,3.401,3.4009,3.4009,3.3796,3.3827,3.3844,3.3877,3.3891,3.391,3.3939,3.3943,3.3973,3.4004,3.3997,3.4036,3.4052,3.4087,3.4099,3.4128,3.4111,3.4127,3.4131,3.4134,3.4137,3.4023,3.4134,3.4134,3.4133,3.4133,3.4133,0,3.3909,3.3918,3.3949,3.3977,3.4003,3.3984,3.4005,3.4027,3.4062,3.4079,3.4104,3.4143,3.4174,3.418,3.4209,3.4231,3.4223,3.4239,3.4236,3.4238,3.4153,3.4139,3.4245,3.4245,3.4245,3.4245,3.4245,3.4245,3.3971,3.4022,3.402,3.4077,3.4086,3.4124,3.4137,3.4154,3.4166,3.4211,3.4237,3.424,3.4252,3.4281,3.4308,3.4309,3.4319,3.4338,3.4335,3.4255,3.4244,3.4233,3.422,3.4341,3.4341,3.4416,3.4417,3.4418]},{"header":{"parameterUnit":"m.s-1","parameterCategory":1,"la1":30.2991,"la2":30.254,"lo1":-89.0895,"lo2":-89.0444,"dy":0.0017,"dx":0.0017,"nx":28,"ny":28,"refTime":"2024-05-26T21:00:00:Z","depth":0,"parameterNumber":3,"parameterNumberName":"V-component_of_WINDS"},"data":[0,0,0,0,0,0,0,0,0,0,0,0,0,0,0,0,0,0,0,0,0,0,0,0,0,0,0,0,0,0,0,0,0,0,0,0,0,0,0,0,0,0,0,0,0,0,0,0,0,0,0,0,0,0,0,0,0,0,5.0659,5.066,0,5.0758,5.0759,5.076,5.074,5.0738,5.0736,5.0734,5.0828,5.0832,5.0836,0,0,0,0,0,0,0,0,0,0,0,0,0,5.0443,5.0447,5.0659,5.066,5.0662,5.0758,5.0759,5.0761,5.074,5.0738,5.0736,5.0733,5.0827,5.0832,5.0837,0,0,0,0,0,0,0,0,0,0,0,0,0,5.0539,5.0448,5.0659,5.0663,5.0664,5.0758,5.0759,5.0761,5.074,5.0738,5.0735,5.0732,5.0825,5.0831,5.0837,5.093,0,0,5.0856,5.0859,0,0,0,0,0,0,0,0,5.0533,5.0547,5.0661,5.0663,5.0665,5.0734,5.0717,5.0817,5.0741,5.0711,5.0734,5.0731,5.0798,5.0807,5.0831,5.0935,5.0939,5.0857,5.0861,5.0863,5.0865,0,0,0,0,0,0,0,5.0527,5.0542,5.0698,5.0663,5.0665,5.0657,5.0668,5.0736,5.0768,5.0714,5.0712,5.0725,5.0799,5.0825,5.0833,5.094,5.0857,5.0862,5.0866,5.0869,5.1122,5.1125,0,0,0,0,0,0,5.052,5.0537,5.0695,5.0701,5.0591,5.0663,5.0675,5.0714,5.0768,5.0774,5.0727,5.0724,5.0816,5.0826,5.0836,5.0948,5.0863,5.0869,5.0873,5.1119,5.1123,5.1126,0,0,0,0,0,0,5.0515,5.0534,5.0691,5.0619,5.0638,5.067,5.0714,5.0718,5.0744,5.0778,5.0783,5.0749,5.0814,5.0827,5.0907,5.095,5.0872,5.0878,5.1116,5.112,5.1125,5.1172,0,0,0,0,0,0,5.0509,5.0533,5.0571,5.062,5.0642,5.0763,5.0717,5.0722,5.0756,5.0752,5.08,5.0805,5.0813,5.0898,5.0913,5.0958,5.0883,5.1112,5.1118,5.1123,5.1166,5.1177,5.1186,0,0,0,0,0,5.0501,5.0578,5.0573,5.0592,5.0691,5.0766,5.0778,5.0788,5.0759,5.0796,5.0818,5.0803,5.0943,5.0906,5.0923,5.097,5.1109,5.1116,5.1123,5.1162,5.1175,5.1186,0,0,0,0,0,0,5.0531,5.0585,5.0579,5.0675,5.0716,5.0762,5.0809,5.0802,5.085,5.0844,5.0852,5.0863,5.0944,5.0965,5.0922,5.1062,5.1022,5.1032,5.1046,5.1058,5.1068,5.1061,5.0888,0,0,0,0,0,5.0549,5.0608,5.0651,5.0731,5.0752,5.0777,5.081,5.0814,5.0856,5.0873,5.09,5.0939,5.0992,5.1026,5.1076,5.1169,5.1178,5.1209,5.1219,5.1228,5.1236,5.1285,5.1299,5.1148,5.1148,5.1148,0,0,5.0586,5.0623,5.0659,5.0738,5.0771,5.0829,5.0792,5.0855,5.0898,5.0881,5.0959,5.098,5.1024,5.111,5.1149,5.113,5.128,5.1236,5.1242,5.1247,5.1293,5.1308,5.132,5.1153,5.1152,5.1151,0,0,5.0684,5.0718,5.0789,5.0822,5.0872,5.0888,5.0905,5.0952,5.0966,5.1045,5.1033,5.1082,5.1173,5.1204,5.1232,5.134,5.1327,5.1356,5.1408,5.1455,5.1467,5.1478,5.1515,5.1529,5.1364,5.1364,5.1364,0,5.0723,5.0814,5.0825,5.089,5.0924,5.0914,5.0983,5.1014,5.1077,5.1099,5.1077,5.119,5.1219,5.1312,5.1338,5.1361,5.1378,5.135,5.1465,5.1476,5.1486,5.1521,5.1535,5.1367,5.1367,5.1367,5.1366,0,5.0858,5.0921,5.0971,5.1035,5.1074,5.1141,5.1159,5.1197,5.1197,5.1214,5.1293,5.1327,5.1383,5.1405,5.1405,5.1497,5.1484,5.1464,5.1423,5.1503,5.1537,5.155,5.1372,5.1371,5.137,5.1369,0,0,5.0978,5.1047,5.1065,5.1094,5.1148,5.1195,5.1259,5.1317,5.1349,5.1391,5.1444,5.1521,5.1502,5.1534,5.1537,5.1578,5.166,5.1553,5.1554,5.1571,5.1762,5.1777,5.1792,5.1652,5.1655,5.1657,5.1758,0,5.108,5.1198,5.121,5.1314,5.137,5.1361,5.1417,5.1454,5.1471,5.1519,5.1536,5.1591,5.1563,5.1581,5.1622,5.1642,5.1698,5.1634,5.1699,5.1701,5.1689,5.181,5.1827,5.192,5.1771,5.1773,5.1775,0,5.1216,5.1265,5.1376,5.1421,5.1445,5.1496,5.1549,5.1596,5.1636,5.1646,5.1681,5.1678,5.1741,5.1698,5.1785,5.1741,5.1767,5.1781,5.1784,5.1791,5.1743,5.1819,5.1951,5.1964,5.1796,5.1794,5.1793,0,5.1291,5.1385,5.1463,5.1488,5.1542,5.1578,5.1602,5.164,5.1674,5.1719,5.174,5.1791,5.1818,5.1856,5.1866,5.1834,5.1951,5.191,5.1959,5.1958,5.1984,5.1982,5.2121,5.2002,5.2001,5.2001,5.2001,0,5.1404,5.1472,5.1498,5.1546,5.162,5.1631,5.1704,5.1725,5.1759,5.1809,5.1802,5.1848,5.1859,5.1906,5.1913,5.1982,5.1995,5.2002,5.2003,5.2003,5.2002,5.202,5.2014,5.2005,5.2004,5.2003,5.2003,0,5.1501,5.1522,5.1606,5.1651,5.1664,5.1717,5.1754,5.1798,5.1814,5.1877,5.1892,5.1916,5.1971,5.1985,5.205,5.2054,5.2136,5.2131,5.2123,5.2123,5.2171,5.2166,5.2326,5.2347,5.2214,5.2216,5.2217,0,5.1572,5.1624,5.1675,5.171,5.1736,5.179,5.1825,5.1836,5.1872,5.1922,5.1959,5.2014,5.2059,5.2146,5.2168,5.2217,5.2212,5.2265,5.222,5.2217,5.2212,5.2209,5.2213,5.2274,5.2275,5.2276,5.2277,0,5.1695,5.1702,5.1754,5.1809,5.1851,5.1894,5.1935,5.1962,5.1978,5.2018,5.2076,5.211,5.2177,5.2231,5.228,5.2301,5.2291,5.2291,5.2305,5.2305,5.2298,5.2302,5.2146,5.2288,5.2287,5.2286,5.2285,5.2285,5.1781,5.1826,5.187,5.1926,5.1959,5.1997,5.2041,5.2063,5.2112,5.2169,5.2172,5.2234,5.227,5.2336,5.236,5.2406,5.239,5.241,5.2415,5.242,5.2424,5.2291,5.2415,5.2415,5.2415,5.2414,5.2414,0,5.1903,5.193,5.1983,5.2041,5.2085,5.2075,5.2119,5.2155,5.2211,5.2248,5.2292,5.2357,5.2408,5.2433,5.2484,5.2516,5.2512,5.2529,5.2526,5.2531,5.2436,5.2419,5.253,5.253,5.253,5.253,5.253,5.253,5.1972,5.2048,5.206,5.2151,5.2177,5.224,5.2266,5.23,5.2329,5.2403,5.2447,5.2463,5.2495,5.2547,5.2592,5.2598,5.2616,5.2635,5.2638,5.2549,5.2537,5.2526,5.251,5.2639,5.2639,5.2729,5.273,5.273]}]]